Year,Month,Day,Hour,Minute,Value (Times are PST for temperature in C)
2011,07,26,00,00,15.10
2011,07,26,00,01,15.10
2011,07,26,00,02,15.00
2011,07,26,00,03,15.00
2011,07,26,00,04,15.00
2011,07,26,00,05,15.00
2011,07,26,00,06,15.00
2011,07,26,00,07,15.00
2011,07,26,00,08,15.00
2011,07,26,00,09,15.00
2011,07,26,00,10,15.00
2011,07,26,00,11,15.00
2011,07,26,00,12,15.00
2011,07,26,00,13,15.00
2011,07,26,00,14,15.00
2011,07,26,00,15,15.00
2011,07,26,00,16,15.00
2011,07,26,00,17,15.00
2011,07,26,00,18,15.00
2011,07,26,00,19,15.00
2011,07,26,00,20,15.00
2011,07,26,00,21,15.00
2011,07,26,00,22,15.00
2011,07,26,00,23,14.90
2011,07,26,00,24,14.90
2011,07,26,00,25,14.90
2011,07,26,00,26,14.90
2011,07,26,00,27,14.80
2011,07,26,00,28,14.80
2011,07,26,00,29,14.80
2011,07,26,00,30,14.80
2011,07,26,00,31,14.80
2011,07,26,00,32,14.80
2011,07,26,00,33,14.80
2011,07,26,00,34,14.80
2011,07,26,00,35,14.80
2011,07,26,00,36,14.70
2011,07,26,00,37,14.70
2011,07,26,00,38,14.70
2011,07,26,00,39,14.70
2011,07,26,00,40,14.70
2011,07,26,00,41,14.70
2011,07,26,00,42,14.70
2011,07,26,00,43,14.70
2011,07,26,00,44,14.60
2011,07,26,00,45,14.60
2011,07,26,00,46,14.60
2011,07,26,00,47,14.60
2011,07,26,00,48,14.60
2011,07,26,00,49,14.50
2011,07,26,00,50,14.50
2011,07,26,00,51,14.50
2011,07,26,00,52,14.60
2011,07,26,00,53,14.60
2011,07,26,00,54,14.50
2011,07,26,00,55,14.60
2011,07,26,00,56,14.50
2011,07,26,00,57,14.50
2011,07,26,00,58,14.50
2011,07,26,00,59,14.50
2011,07,26,01,00,14.60
2011,07,26,01,01,14.60
2011,07,26,01,02,14.60
2011,07,26,01,03,14.60
2011,07,26,01,04,14.60
2011,07,26,01,05,14.60
2011,07,26,01,06,14.60
2011,07,26,01,07,14.60
2011,07,26,01,08,14.60
2011,07,26,01,09,14.60
2011,07,26,01,10,14.60
2011,07,26,01,11,14.60
2011,07,26,01,12,14.60
2011,07,26,01,13,14.60
2011,07,26,01,14,14.60
2011,07,26,01,15,14.60
2011,07,26,01,16,14.60
2011,07,26,01,17,14.60
2011,07,26,01,18,14.60
2011,07,26,01,19,14.60
2011,07,26,01,20,14.60
2011,07,26,01,21,14.50
2011,07,26,01,22,14.50
2011,07,26,01,23,14.50
2011,07,26,01,24,14.50
2011,07,26,01,25,14.50
2011,07,26,01,26,14.40
2011,07,26,01,27,14.40
2011,07,26,01,28,14.40
2011,07,26,01,29,14.40
2011,07,26,01,30,14.40
2011,07,26,01,31,14.40
2011,07,26,01,32,14.40
2011,07,26,01,33,14.40
2011,07,26,01,34,14.40
2011,07,26,01,35,14.40
2011,07,26,01,36,14.40
2011,07,26,01,37,14.40
2011,07,26,01,38,14.40
2011,07,26,01,39,14.40
2011,07,26,01,40,14.40
2011,07,26,01,41,14.40
2011,07,26,01,42,14.40
2011,07,26,01,43,14.40
2011,07,26,01,44,14.40
2011,07,26,01,45,14.40
2011,07,26,01,46,14.50
2011,07,26,01,47,14.50
2011,07,26,01,48,14.50
2011,07,26,01,49,14.50
2011,07,26,01,50,14.50
2011,07,26,01,51,14.50
2011,07,26,01,52,14.50
2011,07,26,01,53,14.50
2011,07,26,01,54,14.50
2011,07,26,01,55,14.40
2011,07,26,01,56,14.40
2011,07,26,01,57,14.40
2011,07,26,01,58,14.40
2011,07,26,01,59,14.40
2011,07,26,02,00,14.40
2011,07,26,02,01,14.40
2011,07,26,02,02,14.40
2011,07,26,02,03,14.40
2011,07,26,02,04,14.40
2011,07,26,02,05,14.40
2011,07,26,02,06,14.50
2011,07,26,02,07,14.50
2011,07,26,02,08,14.50
2011,07,26,02,09,14.50
2011,07,26,02,10,14.50
2011,07,26,02,11,14.40
2011,07,26,02,12,14.40
2011,07,26,02,13,14.40
2011,07,26,02,14,14.40
2011,07,26,02,15,14.30
2011,07,26,02,16,14.30
2011,07,26,02,17,14.30
2011,07,26,02,18,14.30
2011,07,26,02,19,14.30
2011,07,26,02,20,14.30
2011,07,26,02,21,14.20
2011,07,26,02,22,14.20
2011,07,26,02,23,14.20
2011,07,26,02,24,14.10
2011,07,26,02,25,14.10
2011,07,26,02,26,14.00
2011,07,26,02,27,14.00
2011,07,26,02,28,14.00
2011,07,26,02,29,13.90
2011,07,26,02,30,13.90
2011,07,26,02,31,13.90
2011,07,26,02,32,13.90
2011,07,26,02,33,13.90
2011,07,26,02,34,13.90
2011,07,26,02,35,13.90
2011,07,26,02,36,13.90
2011,07,26,02,37,13.90
2011,07,26,02,38,13.90
2011,07,26,02,39,13.80
2011,07,26,02,40,13.80
2011,07,26,02,41,13.80
2011,07,26,02,42,13.80
2011,07,26,02,43,13.70
2011,07,26,02,44,13.70
2011,07,26,02,45,13.60
2011,07,26,02,46,13.60
2011,07,26,02,47,13.50
2011,07,26,02,48,13.50
2011,07,26,02,49,13.50
2011,07,26,02,50,13.50
2011,07,26,02,51,13.50
2011,07,26,02,52,13.50
2011,07,26,02,53,13.50
2011,07,26,02,54,13.50
2011,07,26,02,55,13.50
2011,07,26,02,56,13.50
2011,07,26,02,57,13.50
2011,07,26,02,58,13.40
2011,07,26,02,59,13.40
2011,07,26,03,00,13.40
2011,07,26,03,01,13.40
2011,07,26,03,02,13.40
2011,07,26,03,06,13.30
2011,07,26,03,07,13.20
2011,07,26,03,08,13.20
2011,07,26,03,09,13.20
2011,07,26,03,10,13.10
2011,07,26,03,11,13.10
2011,07,26,03,12,13.00
2011,07,26,03,13,13.00
2011,07,26,03,14,12.90
2011,07,26,03,15,12.90
2011,07,26,03,16,12.80
2011,07,26,03,17,12.80
2011,07,26,03,18,12.70
2011,07,26,03,19,12.60
2011,07,26,03,20,12.50
2011,07,26,03,21,12.50
2011,07,26,03,22,12.40
2011,07,26,03,23,12.30
2011,07,26,03,24,12.30
2011,07,26,03,25,12.30
2011,07,26,03,26,12.20
2011,07,26,03,27,12.20
2011,07,26,03,28,12.10
2011,07,26,03,29,12.10
2011,07,26,03,30,12.10
2011,07,26,03,31,12.00
2011,07,26,03,32,12.00
2011,07,26,03,33,11.90
2011,07,26,03,34,11.90
2011,07,26,03,35,11.80
2011,07,26,03,36,11.80
2011,07,26,03,37,11.80
2011,07,26,03,38,11.80
2011,07,26,03,39,11.70
2011,07,26,03,40,11.70
2011,07,26,03,41,11.70
2011,07,26,03,42,11.70
2011,07,26,03,43,11.70
2011,07,26,03,44,11.70
2011,07,26,03,45,11.60
2011,07,26,03,46,11.60
2011,07,26,03,47,11.60
2011,07,26,03,48,11.60
2011,07,26,03,49,11.50
2011,07,26,03,50,11.50
2011,07,26,03,51,11.50
2011,07,26,03,52,11.50
2011,07,26,03,53,11.50
2011,07,26,03,54,11.50
2011,07,26,03,55,11.50
2011,07,26,03,56,11.40
2011,07,26,03,57,11.40
2011,07,26,03,58,11.40
2011,07,26,03,59,11.40
2011,07,26,04,00,11.30
2011,07,26,04,01,11.30
2011,07,26,04,02,11.30
2011,07,26,04,03,11.30
2011,07,26,04,04,11.30
2011,07,26,04,05,11.30
2011,07,26,04,06,11.20
2011,07,26,04,07,11.20
2011,07,26,04,08,11.20
2011,07,26,04,09,11.20
2011,07,26,04,10,11.30
2011,07,26,04,11,11.30
2011,07,26,04,12,11.30
2011,07,26,04,13,11.30
2011,07,26,04,14,11.30
2011,07,26,04,15,11.30
2011,07,26,04,16,11.30
2011,07,26,04,17,11.30
2011,07,26,04,18,11.30
2011,07,26,04,19,11.30
2011,07,26,04,20,11.20
2011,07,26,04,21,11.20
2011,07,26,04,22,11.20
2011,07,26,04,23,11.20
2011,07,26,04,24,11.20
2011,07,26,04,25,11.20
2011,07,26,04,26,11.20
2011,07,26,04,27,11.20
2011,07,26,04,28,11.20
2011,07,26,04,29,11.20
2011,07,26,04,30,11.20
2011,07,26,04,31,11.20
2011,07,26,04,32,11.30
2011,07,26,04,33,11.30
2011,07,26,04,34,11.30
2011,07,26,04,35,11.30
2011,07,26,04,36,11.20
2011,07,26,04,37,11.20
2011,07,26,04,38,11.20
2011,07,26,04,39,11.20
2011,07,26,04,40,11.20
2011,07,26,04,41,11.20
2011,07,26,04,42,11.20
2011,07,26,04,43,11.20
2011,07,26,04,44,11.20
2011,07,26,04,45,11.20
2011,07,26,04,46,11.30
2011,07,26,04,47,11.30
2011,07,26,04,48,11.30
2011,07,26,04,49,11.30
2011,07,26,04,50,11.30
2011,07,26,04,51,11.30
2011,07,26,04,52,11.30
2011,07,26,04,53,11.30
2011,07,26,04,54,11.30
2011,07,26,04,55,11.40
2011,07,26,04,56,11.40
2011,07,26,04,57,11.40
2011,07,26,04,58,11.40
2011,07,26,04,59,11.40
2011,07,26,05,00,11.40
2011,07,26,05,01,11.40
2011,07,26,05,02,11.40
2011,07,26,05,03,11.40
2011,07,26,05,04,11.50
2011,07,26,05,05,11.50
2011,07,26,05,06,11.60
2011,07,26,05,07,11.60
2011,07,26,05,08,11.60
2011,07,26,05,09,11.70
2011,07,26,05,10,11.70
2011,07,26,05,11,11.70
2011,07,26,05,12,11.70
2011,07,26,05,13,11.70
2011,07,26,05,14,11.80
2011,07,26,05,15,11.80
2011,07,26,05,16,11.90
2011,07,26,05,17,11.90
2011,07,26,05,18,11.90
2011,07,26,05,19,12.00
2011,07,26,05,20,12.00
2011,07,26,05,21,12.10
2011,07,26,05,22,12.10
2011,07,26,05,23,12.20
2011,07,26,05,24,12.20
2011,07,26,05,25,12.20
2011,07,26,05,26,12.20
2011,07,26,05,27,12.30
2011,07,26,05,28,12.30
2011,07,26,05,29,12.40
2011,07,26,05,30,12.40
2011,07,26,05,31,12.50
2011,07,26,05,32,12.50
2011,07,26,05,33,12.60
2011,07,26,05,34,12.70
2011,07,26,05,35,12.70
2011,07,26,05,36,12.80
2011,07,26,05,37,12.80
2011,07,26,05,38,12.80
2011,07,26,05,39,12.80
2011,07,26,05,40,12.80
2011,07,26,05,41,12.80
2011,07,26,05,42,12.80
2011,07,26,05,43,12.80
2011,07,26,05,44,12.80
2011,07,26,05,45,12.80
2011,07,26,05,46,12.90
2011,07,26,05,47,12.90
2011,07,26,05,48,12.90
2011,07,26,05,49,13.00
2011,07,26,05,50,13.00
2011,07,26,05,51,13.00
2011,07,26,05,52,13.10
2011,07,26,05,53,13.10
2011,07,26,05,54,13.00
2011,07,26,05,55,13.00
2011,07,26,05,56,13.00
2011,07,26,05,57,13.00
2011,07,26,05,58,13.00
2011,07,26,05,59,13.00
2011,07,26,06,00,13.00
2011,07,26,06,01,13.00
2011,07,26,06,02,13.00
2011,07,26,06,03,13.00
2011,07,26,06,04,13.00
2011,07,26,06,05,13.00
2011,07,26,06,06,12.90
2011,07,26,06,07,13.00
2011,07,26,06,08,12.90
2011,07,26,06,09,12.90
2011,07,26,06,10,12.90
2011,07,26,06,11,12.90
2011,07,26,06,12,12.90
2011,07,26,06,13,12.90
2011,07,26,06,14,12.90
2011,07,26,06,15,12.90
2011,07,26,06,16,12.90
2011,07,26,06,17,12.90
2011,07,26,06,18,12.90
2011,07,26,06,19,12.90
2011,07,26,06,20,12.90
2011,07,26,06,21,12.90
2011,07,26,06,22,12.80
2011,07,26,06,23,12.80
2011,07,26,06,24,12.80
2011,07,26,06,25,12.80
2011,07,26,06,26,12.70
2011,07,26,06,27,12.70
2011,07,26,06,28,12.70
2011,07,26,06,29,12.60
2011,07,26,06,30,12.60
2011,07,26,06,31,12.60
2011,07,26,06,32,12.60
2011,07,26,06,33,12.50
2011,07,26,06,34,12.50
2011,07,26,06,35,12.50
2011,07,26,06,36,12.40
2011,07,26,06,37,12.40
2011,07,26,06,38,12.40
2011,07,26,06,39,12.40
2011,07,26,06,40,12.40
2011,07,26,06,41,12.40
2011,07,26,06,42,12.30
2011,07,26,06,43,12.30
2011,07,26,06,44,12.30
2011,07,26,06,45,12.30
2011,07,26,06,46,12.30
2011,07,26,06,47,12.30
2011,07,26,06,48,12.20
2011,07,26,06,49,12.20
2011,07,26,06,50,12.20
2011,07,26,06,51,12.20
2011,07,26,06,52,12.20
2011,07,26,06,53,12.20
2011,07,26,06,54,12.30
2011,07,26,06,55,12.30
2011,07,26,06,56,12.30
2011,07,26,06,57,12.30
2011,07,26,06,58,12.40
2011,07,26,06,59,12.40
2011,07,26,07,00,12.50
2011,07,26,07,01,12.60
2011,07,26,07,02,12.60
2011,07,26,07,03,12.70
2011,07,26,07,04,12.80
2011,07,26,07,05,12.80
2011,07,26,07,06,12.90
2011,07,26,07,07,13.00
2011,07,26,07,08,13.10
2011,07,26,07,09,13.20
2011,07,26,07,10,13.30
2011,07,26,07,11,13.40
2011,07,26,07,12,13.50
2011,07,26,07,13,13.50
2011,07,26,07,14,13.60
2011,07,26,07,15,13.70
2011,07,26,07,16,13.80
2011,07,26,07,17,13.90
2011,07,26,07,18,14.00
2011,07,26,07,19,14.10
2011,07,26,07,20,14.20
2011,07,26,07,21,14.30
2011,07,26,07,22,14.40
2011,07,26,07,23,14.50
2011,07,26,07,24,14.70
2011,07,26,07,25,14.80
2011,07,26,07,26,14.90
2011,07,26,07,27,15.00
2011,07,26,07,28,15.00
2011,07,26,07,29,15.00
2011,07,26,07,30,15.00
2011,07,26,07,31,15.00
2011,07,26,07,32,15.10
2011,07,26,07,33,15.00
2011,07,26,07,34,15.00
2011,07,26,07,35,15.00
2011,07,26,07,36,15.00
2011,07,26,07,37,15.00
2011,07,26,07,38,15.00
2011,07,26,07,39,15.00
2011,07,26,07,40,15.00
2011,07,26,07,41,14.90
2011,07,26,07,42,14.80
2011,07,26,07,43,14.70
2011,07,26,07,44,14.70
2011,07,26,07,45,14.60
2011,07,26,07,46,14.60
2011,07,26,07,47,14.60
2011,07,26,07,48,14.50
2011,07,26,07,49,14.50
2011,07,26,07,50,14.50
2011,07,26,07,51,14.50
2011,07,26,07,52,14.50
2011,07,26,07,53,14.50
2011,07,26,07,54,14.50
2011,07,26,07,55,14.50
2011,07,26,07,56,14.60
2011,07,26,07,57,14.50
2011,07,26,07,58,14.60
2011,07,26,07,59,14.60
2011,07,26,08,00,14.60
2011,07,26,08,01,14.60
2011,07,26,08,02,14.60
2011,07,26,08,03,14.60
2011,07,26,08,04,14.60
2011,07,26,08,05,14.60
2011,07,26,08,06,14.60
2011,07,26,08,07,14.60
2011,07,26,08,08,14.60
2011,07,26,08,09,14.60
2011,07,26,08,10,14.70
2011,07,26,08,11,14.70
2011,07,26,08,12,14.70
2011,07,26,08,13,14.80
2011,07,26,08,14,14.80
2011,07,26,08,15,14.80
2011,07,26,08,16,14.90
2011,07,26,08,17,14.90
2011,07,26,08,18,15.00
2011,07,26,08,19,15.00
2011,07,26,08,20,15.00
2011,07,26,08,21,15.00
2011,07,26,08,22,15.00
2011,07,26,08,23,15.00
2011,07,26,08,24,15.00
2011,07,26,08,25,15.00
2011,07,26,08,26,15.00
2011,07,26,08,27,15.00
2011,07,26,08,28,15.00
2011,07,26,08,29,15.00
2011,07,26,08,30,15.00
2011,07,26,08,31,15.00
2011,07,26,08,32,15.00
2011,07,26,08,33,15.00
2011,07,26,08,34,15.00
2011,07,26,08,35,15.00
2011,07,26,08,36,15.00
2011,07,26,08,37,15.10
2011,07,26,08,38,15.10
2011,07,26,08,39,15.20
2011,07,26,08,40,15.30
2011,07,26,08,41,15.30
2011,07,26,08,42,15.30
2011,07,26,08,43,15.30
2011,07,26,08,44,15.30
2011,07,26,08,45,15.30
2011,07,26,08,46,15.30
2011,07,26,08,47,15.30
2011,07,26,08,48,15.30
2011,07,26,08,49,15.30
2011,07,26,08,50,15.30
2011,07,26,08,51,15.30
2011,07,26,08,52,15.30
2011,07,26,08,53,15.40
2011,07,26,08,54,15.40
2011,07,26,08,55,15.40
2011,07,26,08,56,15.40
2011,07,26,08,57,15.50
2011,07,26,08,58,15.50
2011,07,26,08,59,15.60
2011,07,26,09,00,15.70
2011,07,26,09,01,15.70
2011,07,26,09,02,15.80
2011,07,26,09,03,15.80
2011,07,26,09,04,15.80
2011,07,26,09,05,15.80
2011,07,26,09,06,15.80
2011,07,26,09,07,15.80
2011,07,26,09,08,15.80
2011,07,26,09,09,15.80
2011,07,26,09,10,15.80
2011,07,26,09,11,15.80
2011,07,26,09,12,15.90
2011,07,26,09,13,15.90
2011,07,26,09,14,16.00
2011,07,26,09,15,16.00
2011,07,26,09,16,16.10
2011,07,26,09,17,16.10
2011,07,26,09,18,16.10
2011,07,26,09,19,16.10
2011,07,26,09,20,16.10
2011,07,26,09,21,16.10
2011,07,26,09,22,16.20
2011,07,26,09,23,16.20
2011,07,26,09,24,16.20
2011,07,26,09,25,16.20
2011,07,26,09,26,16.20
2011,07,26,09,27,16.30
2011,07,26,09,28,16.30
2011,07,26,09,29,16.30
2011,07,26,09,30,16.30
2011,07,26,09,31,16.40
2011,07,26,09,32,16.40
2011,07,26,09,33,16.50
2011,07,26,09,34,16.50
2011,07,26,09,35,16.60
2011,07,26,09,36,16.70
2011,07,26,09,37,16.70
2011,07,26,09,38,16.80
2011,07,26,09,39,16.80
2011,07,26,09,40,16.90
2011,07,26,09,41,16.90
2011,07,26,09,42,17.00
2011,07,26,09,43,17.00
2011,07,26,09,44,17.10
2011,07,26,09,45,17.10
2011,07,26,09,46,17.10
2011,07,26,09,47,17.00
2011,07,26,09,48,16.90
2011,07,26,09,49,16.80
2011,07,26,09,50,16.80
2011,07,26,09,51,16.70
2011,07,26,09,52,16.70
2011,07,26,09,53,16.70
2011,07,26,09,54,16.70
2011,07,26,09,55,16.60
2011,07,26,09,56,16.60
2011,07,26,09,57,16.60
2011,07,26,09,58,16.60
2011,07,26,09,59,16.60
2011,07,26,10,00,16.60
2011,07,26,10,01,16.60
2011,07,26,10,02,16.60
2011,07,26,10,03,16.60
2011,07,26,10,04,16.60
2011,07,26,10,05,16.60
2011,07,26,10,06,16.60
2011,07,26,10,07,16.70
2011,07,26,10,08,16.70
2011,07,26,10,09,16.70
2011,07,26,10,10,16.70
2011,07,26,10,11,16.80
2011,07,26,10,12,16.80
2011,07,26,10,13,16.80
2011,07,26,10,14,16.90
2011,07,26,10,15,16.90
2011,07,26,10,16,16.90
2011,07,26,10,17,17.00
2011,07,26,10,18,17.10
2011,07,26,10,19,17.10
2011,07,26,10,20,17.10
2011,07,26,10,21,17.20
2011,07,26,10,22,17.20
2011,07,26,10,23,17.20
2011,07,26,10,24,17.30
2011,07,26,10,25,17.30
2011,07,26,10,26,17.40
2011,07,26,10,27,17.40
2011,07,26,10,28,17.40
2011,07,26,10,29,17.50
2011,07,26,10,30,17.60
2011,07,26,10,31,17.60
2011,07,26,10,32,17.70
2011,07,26,10,33,17.70
2011,07,26,10,34,17.80
2011,07,26,10,35,17.80
2011,07,26,10,36,17.90
2011,07,26,10,37,17.90
2011,07,26,10,38,17.90
2011,07,26,10,39,17.80
2011,07,26,10,40,17.80
2011,07,26,10,41,17.70
2011,07,26,10,42,17.70
2011,07,26,10,43,17.60
2011,07,26,10,44,17.60
2011,07,26,10,45,17.60
2011,07,26,10,46,17.60
2011,07,26,10,47,17.60
2011,07,26,10,48,17.60
2011,07,26,10,49,17.60
2011,07,26,10,50,17.60
2011,07,26,10,51,17.60
2011,07,26,10,52,17.60
2011,07,26,10,53,17.60
2011,07,26,10,54,17.60
2011,07,26,10,55,17.60
2011,07,26,10,56,17.60
2011,07,26,10,57,17.60
2011,07,26,10,58,17.60
2011,07,26,10,59,17.50
2011,07,26,11,00,17.50
2011,07,26,11,01,17.60
2011,07,26,11,02,17.60
2011,07,26,11,03,17.60
2011,07,26,11,04,17.60
2011,07,26,11,05,17.60
2011,07,26,11,06,17.60
2011,07,26,11,07,17.60
2011,07,26,11,08,17.60
2011,07,26,11,09,17.60
2011,07,26,11,10,17.60
2011,07,26,11,11,17.60
2011,07,26,11,12,17.70
2011,07,26,11,13,17.70
2011,07,26,11,14,17.70
2011,07,26,11,15,17.70
2011,07,26,11,16,17.70
2011,07,26,11,17,17.70
2011,07,26,11,18,17.60
2011,07,26,11,19,17.60
2011,07,26,11,20,17.50
2011,07,26,11,21,17.40
2011,07,26,11,22,17.40
2011,07,26,11,23,17.40
2011,07,26,11,24,17.40
2011,07,26,11,25,17.40
2011,07,26,11,26,17.40
2011,07,26,11,27,17.40
2011,07,26,11,28,17.40
2011,07,26,11,29,17.50
2011,07,26,11,30,17.50
2011,07,26,11,31,17.50
2011,07,26,11,32,17.50
2011,07,26,11,33,17.40
2011,07,26,11,34,17.40
2011,07,26,11,35,17.40
2011,07,26,11,36,17.40
2011,07,26,11,37,17.30
2011,07,26,11,38,17.30
2011,07,26,11,39,17.30
2011,07,26,11,40,17.30
2011,07,26,11,41,17.30
2011,07,26,11,42,17.30
2011,07,26,11,43,17.30
2011,07,26,11,44,17.30
2011,07,26,11,45,17.30
2011,07,26,11,46,17.30
2011,07,26,11,47,17.30
2011,07,26,11,48,17.40
2011,07,26,11,49,17.40
2011,07,26,11,50,17.40
2011,07,26,11,51,17.40
2011,07,26,11,52,17.40
2011,07,26,11,53,17.40
2011,07,26,11,54,17.40
2011,07,26,11,55,17.40
2011,07,26,11,56,17.40
2011,07,26,11,57,17.50
2011,07,26,11,58,17.50
2011,07,26,11,59,17.60
2011,07,26,12,00,17.70
2011,07,26,12,01,17.80
2011,07,26,12,02,17.80
2011,07,26,12,03,17.80
2011,07,26,12,04,17.80
2011,07,26,12,05,17.70
2011,07,26,12,06,17.70
2011,07,26,12,07,17.70
2011,07,26,12,08,17.70
2011,07,26,12,09,17.70
2011,07,26,12,10,17.70
2011,07,26,12,11,17.70
2011,07,26,12,12,17.70
2011,07,26,12,13,17.70
2011,07,26,12,14,17.80
2011,07,26,12,15,17.90
2011,07,26,12,16,17.90
2011,07,26,12,17,18.00
2011,07,26,12,18,18.10
2011,07,26,12,19,18.20
2011,07,26,12,20,18.20
2011,07,26,12,21,18.20
2011,07,26,12,22,18.20
2011,07,26,12,23,18.30
2011,07,26,12,24,18.40
2011,07,26,12,25,18.60
2011,07,26,12,26,18.70
2011,07,26,12,27,18.70
2011,07,26,12,28,18.70
2011,07,26,12,29,18.70
2011,07,26,12,30,18.70
2011,07,26,12,31,18.70
2011,07,26,12,32,18.70
2011,07,26,12,33,18.60
2011,07,26,12,34,18.60
2011,07,26,12,35,18.60
2011,07,26,12,36,18.50
2011,07,26,12,37,18.50
2011,07,26,12,38,18.50
2011,07,26,12,39,18.50
2011,07,26,12,40,18.50
2011,07,26,12,41,18.40
2011,07,26,12,42,18.40
2011,07,26,12,43,18.40
2011,07,26,12,44,18.40
2011,07,26,12,45,18.40
2011,07,26,12,46,18.50
2011,07,26,12,47,18.50
2011,07,26,12,48,18.50
2011,07,26,12,49,18.60
2011,07,26,12,50,18.60
2011,07,26,12,51,18.60
2011,07,26,12,52,18.60
2011,07,26,12,53,18.70
2011,07,26,12,54,18.80
2011,07,26,12,55,18.80
2011,07,26,12,56,18.90
2011,07,26,12,57,19.00
2011,07,26,12,58,19.00
2011,07,26,12,59,19.10
2011,07,26,13,00,19.20
2011,07,26,13,01,19.20
2011,07,26,13,02,19.20
2011,07,26,13,03,19.10
2011,07,26,13,04,19.10
2011,07,26,13,05,19.10
2011,07,26,13,06,19.20
2011,07,26,13,07,19.20
2011,07,26,13,08,19.30
2011,07,26,13,09,19.30
2011,07,26,13,10,19.30
2011,07,26,13,11,19.30
2011,07,26,13,12,19.30
2011,07,26,13,13,19.20
2011,07,26,13,14,19.30
2011,07,26,13,15,19.40
2011,07,26,13,16,19.40
2011,07,26,13,17,19.50
2011,07,26,13,18,19.50
2011,07,26,13,19,19.50
2011,07,26,13,20,19.60
2011,07,26,13,21,19.60
2011,07,26,13,22,19.50
2011,07,26,13,23,19.40
2011,07,26,13,24,19.40
2011,07,26,13,25,19.40
2011,07,26,13,26,19.40
2011,07,26,13,27,19.40
2011,07,26,13,28,19.50
2011,07,26,13,29,19.50
2011,07,26,13,30,19.40
2011,07,26,13,31,19.40
2011,07,26,13,32,19.30
2011,07,26,13,33,19.20
2011,07,26,13,34,19.20
2011,07,26,13,35,19.20
2011,07,26,13,36,19.10
2011,07,26,13,37,19.00
2011,07,26,13,38,18.90
2011,07,26,13,39,18.90
2011,07,26,13,40,18.80
2011,07,26,13,41,18.70
2011,07,26,13,42,18.70
2011,07,26,13,43,18.70
2011,07,26,13,44,18.80
2011,07,26,13,45,18.80
2011,07,26,13,46,18.80
2011,07,26,13,47,18.80
2011,07,26,13,48,18.80
2011,07,26,13,49,18.90
2011,07,26,13,50,18.90
2011,07,26,13,51,18.90
2011,07,26,13,52,19.00
2011,07,26,13,53,19.10
2011,07,26,13,54,19.10
2011,07,26,13,55,19.10
2011,07,26,13,56,19.00
2011,07,26,13,57,18.90
2011,07,26,13,58,18.80
2011,07,26,13,59,18.70
2011,07,26,14,00,18.70
2011,07,26,14,01,18.60
2011,07,26,14,02,18.60
2011,07,26,14,03,18.60
2011,07,26,14,04,18.70
2011,07,26,14,05,18.70
2011,07,26,14,06,18.70
2011,07,26,14,07,18.70
2011,07,26,14,08,18.70
2011,07,26,14,09,18.70
2011,07,26,14,10,18.80
2011,07,26,14,11,18.80
2011,07,26,14,12,18.80
2011,07,26,14,13,18.90
2011,07,26,14,14,18.90
2011,07,26,14,15,19.00
2011,07,26,14,16,19.10
2011,07,26,14,17,19.10
2011,07,26,14,18,19.10
2011,07,26,14,19,19.20
2011,07,26,14,20,19.30
2011,07,26,14,21,19.40
2011,07,26,14,22,19.40
2011,07,26,14,23,19.50
2011,07,26,14,24,19.50
2011,07,26,14,25,19.60
2011,07,26,14,26,19.60
2011,07,26,14,27,19.60
2011,07,26,14,28,19.60
2011,07,26,14,29,19.50
2011,07,26,14,30,19.40
2011,07,26,14,31,19.30
2011,07,26,14,32,19.30
2011,07,26,14,33,19.20
2011,07,26,14,34,19.20
2011,07,26,14,35,19.10
2011,07,26,14,36,19.10
2011,07,26,14,37,19.10
2011,07,26,14,38,19.10
2011,07,26,14,39,19.20
2011,07,26,14,40,19.20
2011,07,26,14,41,19.10
2011,07,26,14,42,19.10
2011,07,26,14,43,19.10
2011,07,26,14,44,19.10
2011,07,26,14,45,19.20
2011,07,26,14,46,19.20
2011,07,26,14,47,19.30
2011,07,26,14,48,19.30
2011,07,26,14,49,19.30
2011,07,26,14,50,19.30
2011,07,26,14,51,19.30
2011,07,26,14,52,19.40
2011,07,26,14,53,19.40
2011,07,26,14,54,19.50
2011,07,26,14,55,19.50
2011,07,26,14,56,19.50
2011,07,26,14,57,19.50
2011,07,26,14,58,19.60
2011,07,26,14,59,19.60
2011,07,26,15,00,19.70
2011,07,26,15,01,19.70
2011,07,26,15,02,19.70
2011,07,26,15,03,19.70
2011,07,26,15,04,19.70
2011,07,26,15,05,19.70
2011,07,26,15,06,19.60
2011,07,26,15,07,19.50
2011,07,26,15,08,19.30
2011,07,26,15,09,19.20
2011,07,26,15,10,19.10
2011,07,26,15,11,19.00
2011,07,26,15,12,18.90
2011,07,26,15,13,18.90
2011,07,26,15,14,18.90
2011,07,26,15,15,18.80
2011,07,26,15,16,18.90
2011,07,26,15,17,18.90
2011,07,26,15,18,18.90
2011,07,26,15,19,18.90
2011,07,26,15,20,18.90
2011,07,26,15,21,18.90
2011,07,26,15,22,18.90
2011,07,26,15,23,18.90
2011,07,26,15,24,18.90
2011,07,26,15,25,18.90
2011,07,26,15,26,18.90
2011,07,26,15,27,18.90
2011,07,26,15,28,19.00
2011,07,26,15,29,19.00
2011,07,26,15,30,18.90
2011,07,26,15,31,18.90
2011,07,26,15,32,18.80
2011,07,26,15,33,18.80
2011,07,26,15,34,18.80
2011,07,26,15,35,18.70
2011,07,26,15,36,18.70
2011,07,26,15,37,18.70
2011,07,26,15,38,18.70
2011,07,26,15,39,18.60
2011,07,26,15,40,18.60
2011,07,26,15,41,18.60
2011,07,26,15,42,18.60
2011,07,26,15,43,18.50
2011,07,26,15,44,18.50
2011,07,26,15,45,18.40
2011,07,26,15,46,18.40
2011,07,26,15,47,18.40
2011,07,26,15,48,18.40
2011,07,26,15,49,18.50
2011,07,26,15,50,18.50
2011,07,26,15,51,18.60
2011,07,26,15,52,18.60
2011,07,26,15,53,18.70
2011,07,26,15,54,18.80
2011,07,26,15,55,18.80
2011,07,26,15,56,18.80
2011,07,26,15,57,18.90
2011,07,26,15,58,18.90
2011,07,26,15,59,18.90
2011,07,26,16,00,19.00
2011,07,26,16,01,19.10
2011,07,26,16,02,19.10
2011,07,26,16,03,19.20
2011,07,26,16,04,19.30
2011,07,26,16,05,19.30
2011,07,26,16,06,19.30
2011,07,26,16,07,19.30
2011,07,26,16,08,19.20
2011,07,26,16,09,19.20
2011,07,26,16,10,19.10
2011,07,26,16,11,19.10
2011,07,26,16,12,19.00
2011,07,26,16,13,19.00
2011,07,26,16,14,19.00
2011,07,26,16,15,19.10
2011,07,26,16,16,19.10
2011,07,26,16,17,19.10
2011,07,26,16,18,19.20
2011,07,26,16,19,19.20
2011,07,26,16,20,19.20
2011,07,26,16,21,19.10
2011,07,26,16,22,19.10
2011,07,26,16,23,19.10
2011,07,26,16,24,19.10
2011,07,26,16,25,19.10
2011,07,26,16,26,19.00
2011,07,26,16,27,19.00
2011,07,26,16,28,18.90
2011,07,26,16,29,18.90
2011,07,26,16,30,18.90
2011,07,26,16,31,18.90
2011,07,26,16,32,18.90
2011,07,26,16,33,18.90
2011,07,26,16,34,18.90
2011,07,26,16,35,18.90
2011,07,26,16,36,18.90
2011,07,26,16,37,18.90
2011,07,26,16,38,18.90
2011,07,26,16,39,18.90
2011,07,26,16,40,18.90
2011,07,26,16,41,18.90
2011,07,26,16,42,18.90
2011,07,26,16,43,18.90
2011,07,26,16,44,19.00
2011,07,26,16,45,19.10
2011,07,26,16,46,19.10
2011,07,26,16,47,19.20
2011,07,26,16,48,19.30
2011,07,26,16,49,19.40
2011,07,26,16,50,19.40
2011,07,26,16,51,19.40
2011,07,26,16,52,19.30
2011,07,26,16,53,19.30
2011,07,26,16,54,19.30
2011,07,26,16,55,19.20
2011,07,26,16,56,19.20
2011,07,26,16,57,19.20
2011,07,26,16,58,19.20
2011,07,26,16,59,19.20
2011,07,26,17,00,19.30
2011,07,26,17,01,19.30
2011,07,26,17,02,19.30
2011,07,26,17,03,19.30
2011,07,26,17,04,19.30
2011,07,26,17,05,19.30
2011,07,26,17,06,19.30
2011,07,26,17,07,19.40
2011,07,26,17,08,19.30
2011,07,26,17,09,19.20
2011,07,26,17,10,19.20
2011,07,26,17,11,19.20
2011,07,26,17,12,19.20
2011,07,26,17,13,19.20
2011,07,26,17,14,19.20
2011,07,26,17,15,19.20
2011,07,26,17,16,19.20
2011,07,26,17,17,19.20
2011,07,26,17,18,19.20
2011,07,26,17,19,19.30
2011,07,26,17,20,19.30
2011,07,26,17,21,19.30
2011,07,26,17,22,19.40